Hourly Weather Duala

Today, 10 July, Friday

Time Temperature Precipitation Wind Pressure Humidity
00:00 +26°C° 0.6 mm 1 mps 759 mmHg 92%
01:00 +26°C° 0 mm 1 mps 758 mmHg 94%
02:00 +26°C° 1.4 mm 1 mps 758 mmHg 94%
03:00 +26°C° 1.4 mm 1 mps 758 mmHg 93%
04:00 +26°C° 1.4 mm 1 mps 758 mmHg 92%
05:00 +26°C° 1.4 mm 1 mps 758 mmHg 92%
06:00 +26°C° 1.4 mm 1 mps 758 mmHg 92%
07:00 +26°C° 0 mm 1 mps 758 mmHg 90%
08:00 +27°C° 0.8 mm 1 mps 759 mmHg 88%
09:00 +27°C° 0.8 mm 1 mps 759 mmHg 86%
10:00 +28°C° 0.8 mm 1 mps 759 mmHg 84%
11:00 +28°C° 1.6 mm 1 mps 759 mmHg 86%
12:00 +27°C° 1.6 mm 1 mps 759 mmHg 88%
13:00 +25°C° 1.6 mm 0 mps 759 mmHg 89%
14:00 +27°C° 0.9 mm 1 mps 758 mmHg 89%
15:00 +27°C° 0.9 mm 1 mps 758 mmHg 89%
16:00 +27°C° 0.9 mm 1 mps 757 mmHg 88%
17:00 +26°C° 0.6 mm 1 mps 757 mmHg 90%
18:00 +26°C° 0.6 mm 1 mps 758 mmHg 91%
19:00 +26°C° 0.6 mm 2 mps 758 mmHg 92%
20:00 +25°C° 0.3 mm 1 mps 758 mmHg 92%
21:00 +25°C° 0.3 mm 1 mps 759 mmHg 92%
22:00 +25°C° 0.3 mm 1 mps 759 mmHg 92%
23:00 +25°C° 0 mm 1 mps 759 mmHg 92%

Tomorrow, 11 July, Saturday

Time Temperature Precipitation Wind Pressure Humidity
00:00 +25°C° 0 mm 1 mps 759 mmHg 92%
01:00 +25°C° 0 mm 1 mps 759 mmHg 92%
02:00 +25°C° 0.2 mm 1 mps 759 mmHg 92%
03:00 +25°C° 0.2 mm 1 mps 758 mmHg 92%
04:00 +23°C° 0.2 mm 0 mps 758 mmHg 93%
05:00 +23°C° 0.2 mm 0 mps 759 mmHg 92%
06:00 +25°C° 0.2 mm 1 mps 759 mmHg 92%
07:00 +25°C° 0.2 mm 1 mps 759 mmHg 92%
08:00 +24°C° 0.4 mm 0 mps 759 mmHg 89%
09:00 +25°C° 0.4 mm 0 mps 760 mmHg 87%
10:00 +26°C° 0.4 mm 0 mps 760 mmHg 84%
11:00 +27°C° 1.1 mm 1 mps 760 mmHg 85%
12:00 +27°C° 1.1 mm 1 mps 760 mmHg 87%
13:00 +27°C° 1.1 mm 1 mps 759 mmHg 88%
14:00 +26°C° 1 mm 2 mps 759 mmHg 90%
15:00 +26°C° 1 mm 2 mps 758 mmHg 91%
16:00 +26°C° 1 mm 2 mps 758 mmHg 93%
17:00 +26°C° 0.2 mm 1 mps 758 mmHg 93%
18:00 +25°C° 0.2 mm 1 mps 758 mmHg 94%
19:00 +25°C° 0.2 mm 1 mps 758 mmHg 94%
20:00 +25°C° 0 mm 1 mps 759 mmHg 94%
21:00 +25°C° 0 mm 1 mps 759 mmHg 94%
22:00 +25°C° 0 mm 1 mps 759 mmHg 94%
23:00 +25°C° 0.1 mm 1 mps 759 mmHg 94%

Day after tomorrow, 12 July, Sunday

Time Temperature Precipitation Wind Pressure Humidity
00:00 +23°C° 0.1 mm 0 mps 759 mmHg 94%
01:00 +23°C° 0.1 mm 0 mps 759 mmHg 94%
02:00 +23°C° 0 mm 0 mps 759 mmHg 94%
03:00 +25°C° 0 mm 1 mps 759 mmHg 95%
04:00 +24°C° 0 mm 1 mps 758 mmHg 95%
05:00 +24°C° 0.2 mm 1 mps 759 mmHg 95%
06:00 +25°C° 0.2 mm 1 mps 759 mmHg 94%
07:00 +25°C° 0.2 mm 1 mps 760 mmHg 94%
08:00 +26°C° 0.2 mm 1 mps 760 mmHg 88%
09:00 +26°C° 0.2 mm 0 mps 760 mmHg 83%
10:00 +27°C° 0.2 mm 0 mps 760 mmHg 78%
11:00 +29°C° 1.2 mm 1 mps 760 mmHg 79%
12:00 +29°C° 1.2 mm 2 mps 760 mmHg 80%
13:00 +29°C° 1.2 mm 2 mps 759 mmHg 81%
14:00 +29°C° 0.9 mm 3 mps 758 mmHg 82%
15:00 +28°C° 0.9 mm 3 mps 758 mmHg 82%
16:00 +28°C° 0.9 mm 3 mps 757 mmHg 83%
17:00 +28°C° 0.2 mm 3 mps 758 mmHg 86%
18:00 +27°C° 0.2 mm 2 mps 758 mmHg 88%
19:00 +26°C° 0.2 mm 2 mps 758 mmHg 90%
20:00 +26°C° 0.1 mm 2 mps 759 mmHg 91%
21:00 +26°C° 0.1 mm 1 mps 759 mmHg 92%
22:00 +26°C° 0.1 mm 1 mps 760 mmHg 92%
23:00 +26°C° 0.3 mm 1 mps 760 mmHg 93%

13 July, Monday

Time Temperature Precipitation Wind Pressure Humidity
00:00 +26°C° 0.3 mm 1 mps 760 mmHg 93%
01:00 +26°C° 0.3 mm 1 mps 760 mmHg 93%
02:00 +26°C° 1 mm 1 mps 759 mmHg 93%
03:00 +25°C° 1 mm 1 mps 759 mmHg 93%
04:00 +25°C° 1 mm 1 mps 758 mmHg 93%
05:00 +25°C° 1.5 mm 1 mps 759 mmHg 93%
06:00 +25°C° 1.5 mm 1 mps 759 mmHg 93%
07:00 +25°C° 1.5 mm 1 mps 759 mmHg 93%
08:00 +26°C° 1.3 mm 1 mps 760 mmHg 91%
09:00 +27°C° 1.3 mm 2 mps 760 mmHg 88%
10:00 +28°C° 1.3 mm 2 mps 760 mmHg 86%
11:00 +28°C° 1.6 mm 2 mps 760 mmHg 85%
12:00 +28°C° 1.6 mm 2 mps 759 mmHg 85%
13:00 +28°C° 1.6 mm 2 mps 759 mmHg 85%
14:00 +28°C° 1 mm 3 mps 758 mmHg 85%
15:00 +28°C° 1 mm 3 mps 757 mmHg 85%
16:00 +28°C° 1 mm 3 mps 757 mmHg 85%
17:00 +27°C° 0.4 mm 3 mps 757 mmHg 87%
18:00 +26°C° 0.4 mm 2 mps 757 mmHg 89%
19:00 +26°C° 0.4 mm 2 mps 758 mmHg 91%
20:00 +26°C° 0.1 mm 2 mps 758 mmHg 91%
21:00 +26°C° 0.1 mm 1 mps 759 mmHg 92%
22:00 +26°C° 0.1 mm 1 mps 759 mmHg 92%
23:00 +25°C° 0.3 mm 1 mps 759 mmHg 93%

14 July, Tuesday

Time Temperature Precipitation Wind Pressure Humidity
00:00 +25°C° 0.3 mm 1 mps 759 mmHg 94%
01:00 +25°C° 0.3 mm 1 mps 759 mmHg 95%
02:00 +25°C° 0.2 mm 1 mps 758 mmHg 95%
03:00 +25°C° 0.2 mm 1 mps 758 mmHg 95%
04:00 +23°C° 0.2 mm 0 mps 758 mmHg 95%
05:00 +23°C° 0.4 mm 0 mps 758 mmHg 94%
06:00 +23°C° 0.4 mm 0 mps 758 mmHg 94%
07:00 +23°C° 0.4 mm 0 mps 758 mmHg 94%
08:00 +26°C° 0.6 mm 1 mps 759 mmHg 91%
09:00 +26°C° 0.6 mm 1 mps 759 mmHg 88%
10:00 +27°C° 0.6 mm 1 mps 760 mmHg 86%
11:00 +27°C° 0.8 mm 1 mps 759 mmHg 85%
12:00 +28°C° 0.8 mm 1 mps 759 mmHg 84%
13:00 +28°C° 0.8 mm 2 mps 758 mmHg 83%
14:00 +28°C° 0.7 mm 2 mps 757 mmHg 82%
15:00 +28°C° 0.7 mm 2 mps 757 mmHg 81%
16:00 +28°C° 0.7 mm 2 mps 756 mmHg 81%
17:00 +28°C° 0.6 mm 2 mps 757 mmHg 83%
18:00 +27°C° 0.6 mm 1 mps 757 mmHg 86%
19:00 +26°C° 0.6 mm 1 mps 757 mmHg 89%
20:00 +26°C° 0.5 mm 1 mps 758 mmHg 90%
21:00 +26°C° 0.5 mm 1 mps 758 mmHg 90%
22:00 +25°C° 0.5 mm 1 mps 759 mmHg 91%
23:00 +25°C° 0.4 mm 1 mps 759 mmHg 92%

15 July, Wednesday

Time Temperature Precipitation Wind Pressure Humidity
00:00 +25°C° 0.4 mm 1 mps 758 mmHg 92%
01:00 +25°C° 0.4 mm 1 mps 758 mmHg 93%
02:00 +25°C° 0.6 mm 1 mps 758 mmHg 93%
03:00 +25°C° 0.6 mm 1 mps 758 mmHg 93%
04:00 +25°C° 0.6 mm 1 mps 757 mmHg 93%
05:00 +25°C° 0.9 mm 1 mps 758 mmHg 93%
06:00 +25°C° 0.9 mm 1 mps 758 mmHg 92%
07:00 +23°C° 0.9 mm 0 mps 758 mmHg 92%
08:00 +24°C° 0.4 mm 0 mps 759 mmHg 88%
09:00 +25°C° 0.4 mm 0 mps 759 mmHg 85%
10:00 +26°C° 0.4 mm 0 mps 760 mmHg 81%
11:00 +28°C° 1 mm 1 mps 760 mmHg 81%
12:00 +28°C° 1 mm 1 mps 759 mmHg 81%
13:00 +28°C° 1 mm 2 mps 759 mmHg 81%
14:00 +28°C° 0.9 mm 2 mps 759 mmHg 83%
15:00 +27°C° 0.9 mm 2 mps 758 mmHg 84%
16:00 +27°C° 0.9 mm 2 mps 758 mmHg 86%
17:00 +26°C° 0.1 mm 2 mps 758 mmHg 87%
18:00 +26°C° 0.1 mm 2 mps 758 mmHg 88%
19:00 +25°C° 0.1 mm 2 mps 759 mmHg 88%
20:00 +25°C° 0 mm 1 mps 759 mmHg 88%
21:00 +25°C° 0 mm 1 mps 759 mmHg 87%
22:00 +23°C° 0 mm 0 mps 760 mmHg 87%
23:00 +25°C° 0 mm 1 mps 760 mmHg 87%
Show more